START_TIME,STEP,MOV.,M35,t_acc.,PL05,t_acc.,PL06,t_acc.,PL07,t_acc.
1979-07-20 03:00:23.700 ,1,0,0.,4.8,3.,4.8,6.,4.8,1.,4.8
1979-07-20 03:00:28.500 ,1,0,0.,4.8,4.,4.8,1.,4.8,4.,4.8
1979-07-20 03:00:33.300 ,1,0,0.,4.8,8.,4.8,2.,4.8,4.,4.8
1979-07-20 03:00:38.100 ,1,0,0.,4.8,4.,4.8,2.,4.8,4.,4.8
1979-07-20 03:00:42.900 ,1,0,0.,4.8,2.,4.8,6.,4.8,2.,4.8
1979-07-20 03:00:47.700 ,2,0,0.,4.8,6.,4.8,3.,4.8,1.,4.8
1979-07-20 03:00:52.500 ,2,0,0.,4.8,3.,4.8,2.,4.8,4.,4.8
1979-07-20 03:00:57.300 ,2,0,0.,4.8,5.,4.8,3.,4.8,1.,4.8
1979-07-20 03:01:02.100 ,2,0,0.,4.8,3.,4.8,2.,4.8,3.,4.8
1979-07-20 03:01:06.900 ,2,0,0.,4.8,1.,4.8,5.,4.8,1.,4.8
1979-07-20 03:01:11.700 ,2,0,0.,4.8,6.,4.8,1.,4.8,0.,4.8
1979-07-20 03:01:16.500 ,2,0,0.,4.8,2.,4.8,1.,4.8,2.,4.8
1979-07-20 03:01:21.300 ,2,0,0.,4.8,8.,4.8,1.,4.8,1.,4.8
1979-07-20 03:01:26.100 ,2,0,0.,4.8,5.,4.8,3.,4.8,8.,4.8
1979-07-20 03:01:30.900 ,2,0,0.,4.8,3.,4.8,3.,4.8,2.,4.8
1979-07-20 03:01:35.700 ,3,0,0.,4.8,8.,4.8,6.,4.8,3.,4.8
1979-07-20 03:01:40.500 ,3,0,0.,4.8,8.,4.8,2.,4.8,1.,4.8
1979-07-20 03:01:45.300 ,3,0,0.,4.8,6.,4.8,0.,4.8,2.,4.8
1979-07-20 03:01:50.100 ,3,0,0.,4.8,5.,4.8,2.,4.8,3.,4.8
1979-07-20 03:01:54.900 ,3,0,0.,4.8,7.,4.8,3.,4.8,2.,4.8
1979-07-20 03:01:59.700 ,3,0,0.,4.8,3.,4.8,4.,4.8,2.,4.8
1979-07-20 03:02:04.500 ,3,0,0.,4.8,2.,4.8,3.,4.8,3.,4.8
1979-07-20 03:02:09.300 ,3,0,0.,4.8,6.,4.8,2.,4.8,2.,4.8
1979-07-20 03:02:14.100 ,3,0,0.,4.8,7.,4.8,1.,4.8,1.,4.8
1979-07-20 03:02:18.900 ,3,0,0.,4.8,4.,4.8,1.,4.8,4.,4.8
1979-07-20 03:02:23.700 ,4,0,0.,4.8,3.,4.8,2.,4.8,1.,4.8
1979-07-20 03:02:28.500 ,4,0,0.,4.8,5.,4.8,3.,4.8,2.,4.8
1979-07-20 03:02:33.300 ,4,0,0.,4.8,2.,4.8,2.,4.8,2.,4.8
1979-07-20 03:02:38.100 ,4,0,0.,4.8,1.,4.8,1.,4.8,2.,4.8
1979-07-20 03:02:42.900 ,4,0,0.,4.8,4.,4.8,1.,4.8,1.,4.8
1979-07-20 03:02:47.700 ,4,0,0.,4.8,9.,4.8,2.,4.8,0.,4.8
1979-07-20 03:02:52.500 ,4,0,0.,4.8,2.,4.8,4.,4.8,1.,4.8
1979-07-20 03:02:57.300 ,4,0,0.,4.8,5.,4.8,2.,4.8,2.,4.8
1979-07-20 03:03:02.100 ,4,0,0.,4.8,4.,4.8,1.,4.8,2.,4.8
1979-07-20 03:03:06.900 ,4,0,0.,4.8,2.,4.8,2.,4.8,1.,4.8
1979-07-20 03:03:11.700 ,5,0,0.,4.8,5.,4.8,1.,4.8,0.,4.8
1979-07-20 03:03:16.500 ,5,0,0.,4.8,1.,4.8,0.,4.8,1.,4.8
1979-07-20 03:03:21.300 ,5,0,0.,4.8,4.,4.8,2.,4.8,0.,4.8
1979-07-20 03:03:26.100 ,5,0,0.,4.8,7.,4.8,4.,4.8,0.,4.8
1979-07-20 03:03:30.900 ,5,0,0.,4.8,2.,4.8,3.,4.8,2.,4.8
1979-07-20 03:03:35.700 ,5,0,0.,4.8,2.,4.8,2.,4.8,4.,4.8
1979-07-20 03:03:40.500 ,5,0,0.,4.8,5.,4.8,1.,4.8,1.,4.8
1979-07-20 03:03:45.300 ,5,0,0.,4.8,5.,4.8,1.,4.8,0.,4.8
1979-07-20 03:03:50.100 ,5,0,0.,4.8,2.,4.8,1.,4.8,3.,4.8
1979-07-20 03:03:54.900 ,5,0,0.,4.8,4.,4.8,1.,4.8,1.,4.8
1979-07-20 03:03:59.700 ,6,0,0.,4.8,4.,4.8,4.,4.8,5.,4.8
1979-07-20 03:04:04.500 ,6,0,0.,4.8,2.,4.8,2.,4.8,0.,4.8
1979-07-20 03:04:09.300 ,6,0,0.,4.8,4.,4.8,2.,4.8,2.,4.8
1979-07-20 03:04:14.100 ,6,0,0.,4.8,5.,4.8,1.,4.8,3.,4.8
1979-07-20 03:04:18.900 ,6,0,0.,4.8,1.,4.8,2.,4.8,4.,4.8
1979-07-20 03:04:23.700 ,6,0,0.,4.8,0.,4.8,1.,4.8,2.,4.8
1979-07-20 03:04:28.500 ,6,0,0.,4.8,2.,4.8,4.,4.8,1.,4.8
1979-07-20 03:04:33.300 ,6,0,0.,4.8,1.,4.8,3.,4.8,2.,4.8
1979-07-20 03:04:38.100 ,6,0,0.,4.8,2.,4.8,2.,4.8,6.,4.8
1979-07-20 03:04:42.900 ,6,0,0.,4.8,3.,4.8,4.,4.8,2.,4.8
1979-07-20 03:04:47.700 ,7,0,0.,4.8,4.,4.8,1.,4.8,1.,4.8
1979-07-20 03:04:52.500 ,7,0,0.,4.8,2.,4.8,2.,4.8,2.,4.8
1979-07-20 03:04:57.300 ,7,0,0.,4.8,1.,4.8,0.,4.8,0.,4.8
1979-07-20 03:05:02.100 ,7,0,0.,4.8,0.,4.8,0.,4.8,0.,4.8
1979-07-20 03:05:06.900 ,7,0,0.,4.8,0.,4.8,0.,4.8,2.,4.8
1979-07-20 03:05:11.700 ,7,0,0.,4.8,0.,4.8,0.,4.8,0.,4.8
1979-07-20 03:05:16.500 ,7,0,0.,4.8,2.,4.8,0.,4.8,1.,4.8
1979-07-20 03:05:21.300 ,7,0,0.,4.8,0.,4.8,0.,4.8,0.,4.8
1979-07-20 03:05:26.100 ,7,0,0.,4.8,2.,4.8,0.,4.8,0.,4.8
1979-07-20 03:05:30.900 ,7,0,0.,4.8,0.,4.8,0.,4.8,0.,4.8
1979-07-20 03:05:35.700 ,7,0,0.,4.8,0.,4.8,0.,4.8,0.,4.8
1979-07-20 03:05:40.500 ,7,0,0.,4.8,1.,4.8,0.,4.8,0.,4.8
1979-07-20 03:05:45.300 ,7,0,0.,4.8,0.,4.8,0.,4.8,0.,4.8
1979-07-20 03:05:50.100 ,7,0,0.,4.8,0.,4.8,0.,4.8,0.,4.8
1979-07-20 03:05:54.900 ,7,0,0.,4.8,0.,4.8,0.,4.8,0.,4.8
1979-07-20 03:05:59.700 ,7,0,0.,4.8,0.,4.8,0.,4.8,0.,4.8
1979-07-20 03:06:04.500 ,7,0,0.,4.8,1.,4.8,0.,4.8,0.,4.8
1979-07-20 03:06:09.300 ,7,0,0.,4.8,0.,4.8,0.,4.8,0.,4.8
1979-07-20 03:06:14.100 ,7,0,0.,4.8,1.,4.8,0.,4.8,0.,4.8
1979-07-20 03:06:18.900 ,7,0,0.,4.8,1.,4.8,0.,4.8,0.,4.8
1979-07-20 03:06:23.700 ,6,0,0.,4.8,1.,4.8,1.,4.8,0.,4.8
1979-07-20 03:06:28.500 ,6,0,0.,4.8,0.,4.8,0.,4.8,0.,4.8
1979-07-20 03:06:33.300 ,6,0,0.,4.8,3.,4.8,1.,4.8,0.,4.8
1979-07-20 03:06:38.100 ,6,0,0.,4.8,3.,4.8,1.,4.8,0.,4.8
1979-07-20 03:06:42.900 ,6,0,0.,4.8,3.,4.8,1.,4.8,1.,4.8
1979-07-20 03:06:47.700 ,6,0,0.,4.8,2.,4.8,3.,4.8,2.,4.8
1979-07-20 03:06:52.500 ,6,0,0.,4.8,2.,4.8,2.,4.8,1.,4.8
1979-07-20 03:06:57.300 ,6,0,0.,4.8,2.,4.8,5.,4.8,1.,4.8
1979-07-20 03:07:02.100 ,6,0,0.,4.8,4.,4.8,2.,4.8,0.,4.8
1979-07-20 03:07:06.900 ,6,0,0.,4.8,6.,4.8,4.,4.8,1.,4.8
1979-07-20 03:07:11.700 ,5,0,0.,4.8,4.,4.8,1.,4.8,1.,4.8
1979-07-20 03:07:16.500 ,5,0,0.,4.8,4.,4.8,1.,4.8,2.,4.8
1979-07-20 03:07:21.300 ,5,0,0.,4.8,5.,4.8,3.,4.8,0.,4.8
1979-07-20 03:07:26.100 ,5,0,0.,4.8,4.,4.8,5.,4.8,2.,4.8
1979-07-20 03:07:30.900 ,5,0,0.,4.8,5.,4.8,5.,4.8,3.,4.8
1979-07-20 03:07:35.700 ,5,0,0.,4.8,1.,4.8,5.,4.8,1.,4.8
1979-07-20 03:07:40.500 ,5,0,0.,4.8,4.,4.8,5.,4.8,6.,4.8
1979-07-20 03:07:45.300 ,5,0,0.,4.8,6.,4.8,0.,4.8,1.,4.8
1979-07-20 03:07:50.100 ,5,0,0.,4.8,2.,4.8,1.,4.8,3.,4.8
1979-07-20 03:07:54.900 ,5,0,0.,4.8,2.,4.8,1.,4.8,1.,4.8
1979-07-20 03:07:59.700 ,4,0,0.,4.8,5.,4.8,2.,4.8,4.,4.8
1979-07-20 03:08:04.500 ,4,0,0.,4.8,5.,4.8,3.,4.8,1.,4.8
1979-07-20 03:08:09.300 ,4,0,0.,4.8,2.,4.8,0.,4.8,3.,4.8
1979-07-20 03:08:14.100 ,4,0,0.,4.8,2.,4.8,5.,4.8,0.,4.8
1979-07-20 03:08:18.900 ,4,0,0.,4.8,1.,4.8,2.,4.8,4.,4.8
1979-07-20 03:08:23.700 ,4,0,0.,4.8,4.,4.8,3.,4.8,3.,4.8
1979-07-20 03:08:28.500 ,4,0,0.,4.8,2.,4.8,1.,4.8,2.,4.8
1979-07-20 03:08:33.300 ,4,0,0.,4.8,0.,4.8,4.,4.8,1.,4.8
1979-07-20 03:08:38.100 ,4,0,0.,4.8,4.,4.8,2.,4.8,2.,4.8
1979-07-20 03:08:42.900 ,4,0,0.,4.8,4.,4.8,2.,4.8,0.,4.8
1979-07-20 03:08:47.700 ,3,0,0.,4.8,5.,4.8,1.,4.8,4.,4.8
1979-07-20 03:08:52.500 ,3,0,0.,4.8,4.,4.8,6.,4.8,1.,4.8
1979-07-20 03:08:57.300 ,3,0,0.,4.8,2.,4.8,0.,4.8,3.,4.8
1979-07-20 03:09:02.100 ,3,0,0.,4.8,5.,4.8,3.,4.8,4.,4.8
1979-07-20 03:09:06.900 ,3,0,0.,4.8,4.,4.8,1.,4.8,2.,4.8
1979-07-20 03:09:11.700 ,3,0,0.,4.8,5.,4.8,3.,4.8,1.,4.8
1979-07-20 03:09:16.500 ,3,0,0.,4.8,5.,4.8,0.,4.8,1.,4.8
1979-07-20 03:09:21.300 ,3,0,0.,4.8,8.,4.8,4.,4.8,2.,4.8
1979-07-20 03:09:26.100 ,3,0,0.,4.8,1.,4.8,3.,4.8,2.,4.8
1979-07-20 03:09:30.900 ,3,0,0.,4.8,5.,4.8,5.,4.8,1.,4.8
1979-07-20 03:09:35.700 ,2,0,0.,4.8,4.,4.8,1.,4.8,3.,4.8
1979-07-20 03:09:40.500 ,2,0,0.,4.8,2.,4.8,0.,4.8,2.,4.8
1979-07-20 03:09:45.300 ,2,0,0.,4.8,4.,4.8,3.,4.8,2.,4.8
1979-07-20 03:09:50.100 ,2,0,0.,4.8,6.,4.8,6.,4.8,2.,4.8
1979-07-20 03:09:54.900 ,2,0,0.,4.8,4.,4.8,2.,4.8,6.,4.8
1979-07-20 03:09:59.700 ,2,0,0.,4.8,2.,4.8,3.,4.8,0.,4.8
1979-07-20 03:10:04.500 ,2,0,0.,4.8,5.,4.8,1.,4.8,1.,4.8
1979-07-20 03:10:09.300 ,2,0,0.,4.8,1.,4.8,6.,4.8,1.,4.8
1979-07-20 03:10:14.100 ,2,0,0.,4.8,2.,4.8,4.,4.8,0.,4.8
1979-07-20 03:10:18.900 ,2,0,0.,4.8,5.,4.8,2.,4.8,3.,4.8
1979-07-20 03:10:23.700 ,1,0,0.,4.8,5.,4.8,4.,4.8,2.,4.8
1979-07-20 03:10:28.500 ,1,0,0.,4.8,1.,4.8,4.,4.8,1.,4.8
1979-07-20 03:10:33.300 ,1,0,0.,4.8,7.,4.8,1.,4.8,2.,4.8
1979-07-20 03:10:38.100 ,1,0,0.,4.8,3.,4.8,4.,4.8,2.,4.8
1979-07-20 03:10:42.900 ,1,0,0.,4.8,0.,4.8,4.,4.8,2.,4.8
1979-07-20 03:10:47.700 ,1,0,0.,4.8,1.,4.8,3.,4.8,0.,4.8
1979-07-20 03:10:52.500 ,1,0,0.,4.8,4.,4.8,5.,4.8,2.,4.8
1979-07-20 03:10:57.300 ,1,0,0.,4.8,4.,4.8,1.,4.8,2.,4.8
1979-07-20 03:11:02.100 ,1,0,0.,4.8,1.,4.8,0.,4.8,1.,4.8
1979-07-20 03:11:06.900 ,1,0,0.,4.8,6.,4.8,1.,4.8,1.,4.8
1979-07-20 03:11:11.700 ,0,0,0.,4.8,4.,4.8,0.,4.8,2.,4.8
1979-07-20 03:11:16.500 ,0,0,0.,4.8,7.,4.8,5.,4.8,4.,4.8
1979-07-20 03:11:21.300 ,0,0,0.,4.8,2.,4.8,3.,4.8,4.,4.8
1979-07-20 03:11:26.100 ,0,0,0.,4.8,3.,4.8,2.,4.8,1.,4.8
1979-07-20 03:11:30.900 ,0,0,0.,4.8,2.,4.8,2.,4.8,3.,4.8
1979-07-20 03:11:35.700 ,0,0,0.,4.8,1.,4.8,4.,4.8,1.,4.8
1979-07-20 03:11:40.500 ,0,0,0.,4.8,5.,4.8,2.,4.8,0.,4.8
1979-07-20 03:11:45.300 ,0,0,0.,4.8,4.,4.8,1.,4.8,4.,4.8
1979-07-20 03:11:50.100 ,0,0,0.,4.8,4.,4.8,2.,4.8,1.,4.8
1979-07-20 03:11:54.900 ,0,0,0.,4.8,4.,4.8,3.,4.8,2.,4.8
1979-07-20 03:11:59.700 ,0,0,0.,4.8,1.,4.8,2.,4.8,1.,4.8
1979-07-20 03:12:04.500 ,0,0,0.,4.8,5.,4.8,1.,4.8,1.,4.8
1979-07-20 03:12:09.300 ,0,0,0.,4.8,3.,4.8,0.,4.8,1.,4.8
1979-07-20 03:12:14.100 ,0,0,0.,4.8,3.,4.8,3.,4.8,0.,4.8
1979-07-20 03:12:18.900 ,0,0,0.,4.8,8.,4.8,3.,4.8,0.,4.8
1979-07-20 03:12:23.700 ,0,0,0.,4.8,5.,4.8,3.,4.8,1.,4.8
1979-07-20 03:12:28.500 ,0,0,0.,4.8,2.,4.8,1.,4.8,3.,4.8
1979-07-20 03:12:33.300 ,0,0,0.,4.8,4.,4.8,2.,4.8,1.,4.8
1979-07-20 03:12:38.100 ,0,0,0.,4.8,3.,4.8,1.,4.8,0.,4.8
1979-07-20 03:12:42.900 ,0,0,0.,4.8,2.,4.8,4.,4.8,0.,4.8
1979-07-20 03:12:47.700 ,0,0,0.,4.8,1.,4.8,5.,4.8,3.,4.8
1979-07-20 03:12:52.500 ,0,0,0.,4.8,4.,4.8,2.,4.8,3.,4.8
1979-07-20 03:12:57.300 ,0,0,0.,4.8,2.,4.8,1.,4.8,2.,4.8
1979-07-20 03:13:02.100 ,0,0,0.,4.8,6.,4.8,2.,4.8,6.,4.8
1979-07-20 03:13:06.900 ,0,0,0.,4.8,3.,4.8,3.,4.8,1.,4.8
1979-07-20 03:13:11.700 ,0,0,,0,,0,,0,,0
1979-07-20 03:13:16.500 ,0,0,0.,4.8,3.,4.8,0.,4.8,3.,4.8
1979-07-20 03:13:21.300 ,0,0,0.,4.8,6.,4.8,3.,4.8,2.,4.8
1979-07-20 03:13:26.100 ,0,0,0.,4.8,3.,4.8,2.,4.8,3.,4.8
1979-07-20 03:13:30.900 ,0,0,0.,4.8,4.,4.8,1.,4.8,0.,4.8
1979-07-20 03:13:35.700 ,2,0,0.,4.8,3.,4.8,4.,4.8,1.,4.8
1979-07-20 03:13:40.500 ,2,0,0.,4.8,2.,4.8,3.,4.8,3.,4.8
1979-07-20 03:13:45.300 ,2,0,0.,4.8,1.,4.8,1.,4.8,1.,4.8
1979-07-20 03:13:50.100 ,2,0,0.,4.8,2.,4.8,1.,4.8,4.,4.8
1979-07-20 03:13:54.900 ,2,0,0.,4.8,3.,4.8,0.,4.8,3.,4.8
1979-07-20 03:13:59.700 ,2,0,0.,4.8,7.,4.8,2.,4.8,4.,4.8
1979-07-20 03:14:04.500 ,2,0,0.,4.8,6.,4.8,1.,4.8,2.,4.8
1979-07-20 03:14:09.300 ,2,0,0.,4.8,4.,4.8,1.,4.8,5.,4.8
1979-07-20 03:14:14.100 ,2,0,0.,4.8,5.,4.8,2.,4.8,1.,4.8
1979-07-20 03:14:18.900 ,2,0,0.,4.8,4.,4.8,3.,4.8,1.,4.8
1979-07-20 03:14:23.700 ,3,0,0.,4.8,5.,4.8,2.,4.8,2.,4.8
1979-07-20 03:14:28.500 ,3,0,0.,4.8,3.,4.8,2.,4.8,2.,4.8
1979-07-20 03:14:33.300 ,3,0,0.,4.8,4.,4.8,3.,4.8,0.,4.8
1979-07-20 03:14:38.100 ,3,0,0.,4.8,2.,4.8,0.,4.8,1.,4.8
1979-07-20 03:14:42.900 ,3,0,0.,4.8,1.,4.8,3.,4.8,2.,4.8
1979-07-20 03:14:47.700 ,3,0,0.,4.8,2.,4.8,1.,4.8,3.,4.8
1979-07-20 03:14:52.500 ,3,0,0.,4.8,2.,4.8,4.,4.8,2.,4.8
1979-07-20 03:14:57.300 ,3,0,0.,4.8,4.,4.8,0.,4.8,3.,4.8
1979-07-20 03:15:02.100 ,3,0,0.,4.8,1.,4.8,3.,4.8,1.,4.8
1979-07-20 03:15:06.900 ,3,0,0.,4.8,6.,4.8,5.,4.8,2.,4.8
1979-07-20 03:15:11.700 ,4,0,0.,4.8,5.,4.8,4.,4.8,2.,4.8
1979-07-20 03:15:16.500 ,4,0,0.,4.8,6.,4.8,2.,4.8,3.,4.8
1979-07-20 03:15:21.300 ,4,0,0.,4.8,2.,4.8,0.,4.8,2.,4.8
1979-07-20 03:15:26.100 ,4,0,0.,4.8,2.,4.8,4.,4.8,2.,4.8
1979-07-20 03:15:30.900 ,4,0,0.,4.8,5.,4.8,1.,4.8,0.,4.8
1979-07-20 03:15:35.700 ,4,0,0.,4.8,2.,4.8,5.,4.8,2.,4.8
1979-07-20 03:15:40.500 ,4,0,0.,4.8,1.,4.8,4.,4.8,1.,4.8
1979-07-20 03:15:45.300 ,4,0,0.,4.8,3.,4.8,1.,4.8,2.,4.8
1979-07-20 03:15:50.100 ,4,0,0.,4.8,5.,4.8,1.,4.8,0.,4.8
1979-07-20 03:15:54.900 ,4,0,0.,4.8,8.,4.8,0.,4.8,2.,4.8
1979-07-20 03:15:59.700 ,5,0,0.,4.8,4.,4.8,4.,4.8,1.,4.8
1979-07-20 03:16:04.500 ,5,0,0.,4.8,1.,4.8,2.,4.8,1.,4.8
1979-07-20 03:16:09.300 ,5,0,0.,4.8,2.,4.8,6.,4.8,1.,4.8
1979-07-20 03:16:14.100 ,5,0,0.,4.8,3.,4.8,0.,4.8,0.,4.8
1979-07-20 03:16:18.900 ,5,0,0.,4.8,3.,4.8,0.,4.8,3.,4.8
1979-07-20 03:16:23.700 ,5,0,0.,4.8,4.,4.8,3.,4.8,1.,4.8
1979-07-20 03:16:28.500 ,5,0,0.,4.8,4.,4.8,6.,4.8,1.,4.8
1979-07-20 03:16:33.300 ,5,0,0.,4.8,1.,4.8,1.,4.8,4.,4.8
1979-07-20 03:16:38.100 ,5,0,0.,4.8,5.,4.8,1.,4.8,2.,4.8
1979-07-20 03:16:42.900 ,5,0,0.,4.8,3.,4.8,1.,4.8,2.,4.8
1979-07-20 03:16:47.700 ,6,0,0.,4.8,2.,4.8,1.,4.8,6.,4.8
1979-07-20 03:16:52.500 ,6,0,0.,4.8,3.,4.8,2.,4.8,2.,4.8
1979-07-20 03:16:57.300 ,6,0,0.,4.8,5.,4.8,3.,4.8,2.,4.8
1979-07-20 03:17:02.100 ,6,0,0.,4.8,2.,4.8,1.,4.8,2.,4.8
1979-07-20 03:17:06.900 ,6,0,0.,4.8,2.,4.8,2.,4.8,3.,4.8
1979-07-20 03:17:11.700 ,6,0,0.,4.8,5.,4.8,4.,4.8,1.,4.8
1979-07-20 03:17:16.500 ,6,0,0.,4.8,3.,4.8,2.,4.8,0.,4.8
1979-07-20 03:17:21.300 ,6,0,0.,4.8,5.,4.8,4.,4.8,2.,4.8
1979-07-20 03:17:26.100 ,6,0,0.,4.8,3.,4.8,1.,4.8,2.,4.8
1979-07-20 03:17:30.900 ,6,0,0.,4.8,3.,4.8,2.,4.8,0.,4.8
1979-07-20 03:17:35.700 ,7,0,0.,4.8,0.,4.8,1.,4.8,1.,4.8
1979-07-20 03:17:40.500 ,7,0,0.,4.8,3.,4.8,3.,4.8,2.,4.8
1979-07-20 03:17:45.300 ,7,0,0.,4.8,0.,4.8,0.,4.8,0.,4.8
1979-07-20 03:17:50.100 ,7,0,0.,4.8,0.,4.8,1.,4.8,0.,4.8
1979-07-20 03:17:54.900 ,7,0,0.,4.8,1.,4.8,0.,4.8,0.,4.8
1979-07-20 03:17:59.700 ,7,0,0.,4.8,2.,4.8,0.,4.8,0.,4.8
1979-07-20 03:18:04.500 ,7,0,0.,4.8,0.,4.8,0.,4.8,0.,4.8
1979-07-20 03:18:09.300 ,7,0,0.,4.8,0.,4.8,0.,4.8,0.,4.8
1979-07-20 03:18:14.100 ,7,0,0.,4.8,0.,4.8,0.,4.8,1.,4.8
1979-07-20 03:18:18.900 ,7,0,0.,4.8,0.,4.8,1.,4.8,0.,4.8
1979-07-20 03:18:23.700 ,7,0,0.,4.8,0.,4.8,0.,4.8,0.,4.8
1979-07-20 03:18:28.500 ,7,0,0.,4.8,0.,4.8,0.,4.8,0.,4.8
1979-07-20 03:18:33.300 ,7,0,0.,4.8,0.,4.8,0.,4.8,0.,4.8
1979-07-20 03:18:38.100 ,7,0,0.,4.8,0.,4.8,0.,4.8,0.,4.8
1979-07-20 03:18:42.900 ,7,0,0.,4.8,0.,4.8,0.,4.8,1.,4.8
1979-07-20 03:18:47.700 ,7,0,0.,4.8,1.,4.8,0.,4.8,0.,4.8
1979-07-20 03:18:52.500 ,7,0,0.,4.8,0.,4.8,0.,4.8,0.,4.8
1979-07-20 03:18:57.300 ,7,0,0.,4.8,0.,4.8,0.,4.8,0.,4.8
1979-07-20 03:19:02.100 ,7,0,0.,4.8,0.,4.8,0.,4.8,0.,4.8
1979-07-20 03:19:06.900 ,7,0,0.,4.8,1.,4.8,0.,4.8,0.,4.8
1979-07-20 03:19:11.700 ,0,0,0.,4.8,1.,4.8,0.,4.8,0.,4.8
1979-07-20 03:19:16.500 ,0,0,0.,4.8,2.,4.8,0.,4.8,0.,4.8
1979-07-20 03:19:21.300 ,0,0,0.,4.8,1.,4.8,0.,4.8,1.,4.8
1979-07-20 03:19:26.100 ,0,0,0.,4.8,0.,4.8,2.,4.8,2.,4.8
1979-07-20 03:19:30.900 ,0,0,0.,4.8,3.,4.8,2.,4.8,4.,4.8
1979-07-20 03:19:35.700 ,0,0,0.,4.8,2.,4.8,3.,4.8,2.,4.8
1979-07-20 03:19:40.500 ,0,0,0.,4.8,2.,4.8,3.,4.8,1.,4.8
1979-07-20 03:19:45.300 ,0,0,0.,4.8,4.,4.8,5.,4.8,3.,4.8
1979-07-20 03:19:50.100 ,0,0,0.,4.8,4.,4.8,1.,4.8,2.,4.8
1979-07-20 03:19:54.900 ,0,0,0.,4.8,2.,4.8,4.,4.8,0.,4.8
1979-07-20 03:19:59.700 ,5,0,0.,4.8,2.,4.8,2.,4.8,1.,4.8
1979-07-20 03:20:04.500 ,5,0,0.,4.8,4.,4.8,3.,4.8,2.,4.8
1979-07-20 03:20:09.300 ,5,0,0.,4.8,2.,4.8,1.,4.8,4.,4.8
1979-07-20 03:20:14.100 ,5,0,0.,4.8,1.,4.8,2.,4.8,0.,4.8
1979-07-20 03:20:18.900 ,5,0,0.,4.8,1.,4.8,2.,4.8,2.,4.8
1979-07-20 03:20:23.700 ,5,0,0.,4.8,1.,4.8,5.,4.8,2.,4.8
1979-07-20 03:20:28.500 ,5,0,0.,4.8,2.,4.8,5.,4.8,1.,4.8
1979-07-20 03:20:33.300 ,5,0,0.,4.8,3.,4.8,2.,4.8,1.,4.8
1979-07-20 03:20:38.100 ,5,0,0.,4.8,5.,4.8,0.,4.8,3.,4.8
1979-07-20 03:20:42.900 ,5,0,0.,4.8,1.,4.8,3.,4.8,1.,4.8
1979-07-20 03:20:47.700 ,4,0,0.,4.8,3.,4.8,3.,4.8,1.,4.8
1979-07-20 03:20:52.500 ,4,0,0.,4.8,6.,4.8,2.,4.8,0.,4.8
1979-07-20 03:20:57.300 ,4,0,0.,4.8,4.,4.8,6.,4.8,1.,4.8
1979-07-20 03:21:02.100 ,4,0,0.,4.8,1.,4.8,4.,4.8,1.,4.8
1979-07-20 03:21:06.900 ,4,0,0.,4.8,4.,4.8,5.,4.8,3.,4.8
1979-07-20 03:21:11.700 ,4,0,0.,4.8,1.,4.8,1.,4.8,0.,4.8
1979-07-20 03:21:16.500 ,4,0,0.,4.8,2.,4.8,4.,4.8,1.,4.8
1979-07-20 03:21:21.300 ,4,0,0.,4.8,3.,4.8,2.,4.8,2.,4.8
1979-07-20 03:21:26.100 ,4,0,0.,4.8,5.,4.8,3.,4.8,2.,4.8
1979-07-20 03:21:30.900 ,4,0,0.,4.8,1.,4.8,2.,4.8,2.,4.8
1979-07-20 03:21:35.700 ,3,0,0.,4.8,4.,4.8,2.,4.8,1.,4.8
1979-07-20 03:21:40.500 ,3,0,0.,4.8,5.,4.8,4.,4.8,3.,4.8
1979-07-20 03:21:45.300 ,3,0,0.,4.8,5.,4.8,1.,4.8,2.,4.8
1979-07-20 03:21:50.100 ,3,0,0.,4.8,5.,4.8,2.,4.8,1.,4.8
1979-07-20 03:21:54.900 ,3,0,0.,4.8,2.,4.8,5.,4.8,4.,4.8
1979-07-20 03:21:59.700 ,3,0,0.,4.8,7.,4.8,4.,4.8,3.,4.8
1979-07-20 03:22:04.500 ,3,0,0.,4.8,4.,4.8,2.,4.8,1.,4.8
1979-07-20 03:22:09.300 ,3,0,0.,4.8,4.,4.8,1.,4.8,2.,4.8
1979-07-20 03:22:14.100 ,3,0,0.,4.8,5.,4.8,3.,4.8,1.,4.8
1979-07-20 03:22:18.900 ,3,0,0.,4.8,9.,4.8,0.,4.8,4.,4.8
1979-07-20 03:22:23.700 ,2,0,0.,4.8,2.,4.8,4.,4.8,3.,4.8
1979-07-20 03:22:28.500 ,2,0,0.,4.8,3.,4.8,1.,4.8,3.,4.8
1979-07-20 03:22:33.300 ,2,0,0.,4.8,1.,4.8,3.,4.8,2.,4.8
1979-07-20 03:22:38.100 ,2,0,0.,4.8,6.,4.8,2.,4.8,0.,4.8
1979-07-20 03:22:42.900 ,2,0,0.,4.8,3.,4.8,3.,4.8,1.,4.8
1979-07-20 03:22:47.700 ,2,0,0.,4.8,5.,4.8,4.,4.8,0.,4.8
1979-07-20 03:22:52.500 ,2,0,0.,4.8,3.,4.8,0.,4.8,1.,4.8
1979-07-20 03:22:57.300 ,2,0,0.,4.8,3.,4.8,6.,4.8,1.,4.8
1979-07-20 03:23:02.100 ,2,0,0.,4.8,2.,4.8,1.,4.8,0.,4.8
1979-07-20 03:23:06.900 ,2,0,0.,4.8,7.,4.8,2.,4.8,2.,4.8
1979-07-20 03:23:11.700 ,1,0,0.,4.8,4.,4.8,3.,4.8,2.,4.8
1979-07-20 03:23:16.500 ,1,0,0.,4.8,2.,4.8,5.,4.8,0.,4.8
1979-07-20 03:23:21.300 ,1,0,0.,4.8,6.,4.8,3.,4.8,1.,4.8
1979-07-20 03:23:26.100 ,1,0,0.,4.8,7.,4.8,6.,4.8,2.,4.8
1979-07-20 03:23:30.900 ,1,0,0.,4.8,4.,4.8,4.,4.8,0.,4.8
1979-07-20 03:23:35.700 ,1,0,0.,4.8,1.,4.8,1.,4.8,1.,4.8
1979-07-20 03:23:40.500 ,1,0,0.,4.8,1.,4.8,5.,4.8,4.,4.8
1979-07-20 03:23:45.300 ,1,0,0.,4.8,12.,4.8,1.,4.8,3.,4.8
1979-07-20 03:23:50.100 ,1,0,0.,4.8,2.,4.8,2.,4.8,5.,4.8
1979-07-20 03:23:54.900 ,1,0,0.,4.8,2.,4.8,2.,4.8,2.,4.8
1979-07-20 03:23:59.700 ,0,0,0.,4.8,4.,4.8,4.,4.8,1.,4.8
1979-07-20 03:24:04.500 ,0,0,0.,4.8,4.,4.8,4.,4.8,2.,4.8
1979-07-20 03:24:09.300 ,0,0,0.,4.8,2.,4.8,3.,4.8,1.,4.8
1979-07-20 03:24:14.100 ,0,0,0.,4.8,3.,4.8,3.,4.8,2.,4.8
1979-07-20 03:24:18.900 ,0,0,0.,4.8,3.,4.8,3.,4.8,1.,4.8
1979-07-20 03:24:23.700 ,0,0,0.,4.8,5.,4.8,2.,4.8,0.,4.8
1979-07-20 03:24:28.500 ,0,0,0.,4.8,5.,4.8,2.,4.8,3.,4.8
1979-07-20 03:24:33.300 ,0,0,0.,4.8,6.,4.8,2.,4.8,2.,4.8
1979-07-20 03:24:38.100 ,0,0,0.,4.8,2.,4.8,2.,4.8,2.,4.8
1979-07-20 03:24:42.900 ,0,0,0.,4.8,2.,4.8,0.,4.8,0.,4.8
1979-07-20 03:24:47.700 ,0,0,0.,4.8,5.,4.8,2.,4.8,3.,4.8
1979-07-20 03:24:52.500 ,0,0,0.,4.8,3.,4.8,0.,4.8,2.,4.8
1979-07-20 03:24:57.300 ,0,0,0.,4.8,1.,4.8,1.,4.8,4.,4.8
1979-07-20 03:25:02.100 ,0,0,0.,4.8,0.,4.8,4.,4.8,0.,4.8
1979-07-20 03:25:06.900 ,0,0,0.,4.8,4.,4.8,2.,4.8,3.,4.8
1979-07-20 03:25:11.700 ,0,0,0.,4.8,2.,4.8,2.,4.8,2.,4.8
1979-07-20 03:25:16.500 ,0,0,0.,4.8,2.,4.8,2.,4.8,4.,4.8
1979-07-20 03:25:21.300 ,0,0,0.,4.8,0.,4.8,4.,4.8,0.,4.8
1979-07-20 03:25:26.100 ,0,0,0.,4.8,4.,4.8,2.,4.8,2.,4.8
1979-07-20 03:25:30.900 ,0,0,0.,4.8,5.,4.8,3.,4.8,1.,4.8
1979-07-20 03:25:35.700 ,1,0,0.,4.8,4.,4.8,2.,4.8,1.,4.8
1979-07-20 03:25:40.500 ,1,0,0.,4.8,1.,4.8,5.,4.8,0.,4.8
1979-07-20 03:25:45.300 ,1,0,0.,4.8,3.,4.8,3.,4.8,1.,4.8
1979-07-20 03:25:50.100 ,1,0,0.,4.8,4.,4.8,2.,4.8,3.,4.8
1979-07-20 03:25:54.900 ,1,0,0.,4.8,3.,4.8,3.,4.8,1.,4.8
1979-07-20 03:25:59.700 ,1,0,0.,4.8,1.,4.8,3.,4.8,1.,4.8
1979-07-20 03:26:04.500 ,1,0,0.,4.8,7.,4.8,2.,4.8,2.,4.8
1979-07-20 03:26:09.300 ,1,0,0.,4.8,2.,4.8,5.,4.8,1.,4.8
1979-07-20 03:26:14.100 ,1,0,0.,4.8,7.,4.8,3.,4.8,3.,4.8
1979-07-20 03:26:18.900 ,1,0,0.,4.8,3.,4.8,3.,4.8,2.,4.8
1979-07-20 03:26:23.700 ,2,0,0.,4.8,4.,4.8,3.,4.8,1.,4.8
1979-07-20 03:26:28.500 ,2,0,0.,4.8,2.,4.8,5.,4.8,2.,4.8
1979-07-20 03:26:33.300 ,2,0,0.,4.8,3.,4.8,8.,4.8,0.,4.8
1979-07-20 03:26:38.100 ,2,0,0.,4.8,5.,4.8,5.,4.8,4.,4.8
1979-07-20 03:26:42.900 ,2,0,0.,4.8,1.,4.8,0.,4.8,0.,4.8
1979-07-20 03:26:47.700 ,2,0,0.,4.8,7.,4.8,3.,4.8,0.,4.8
1979-07-20 03:26:52.500 ,2,0,0.,4.8,10.,4.8,5.,4.8,2.,4.8
1979-07-20 03:26:57.300 ,2,0,0.,4.8,4.,4.8,1.,4.8,3.,4.8
1979-07-20 03:27:02.100 ,2,0,0.,4.8,4.,4.8,2.,4.8,0.,4.8
1979-07-20 03:27:06.900 ,2,0,0.,4.8,2.,4.8,2.,4.8,0.,4.8
1979-07-20 03:27:11.700 ,3,0,0.,4.8,10.,4.8,0.,4.8,0.,4.8
1979-07-20 03:27:16.500 ,3,0,0.,4.8,5.,4.8,1.,4.8,0.,4.8
1979-07-20 03:27:21.300 ,3,0,0.,4.8,3.,4.8,1.,4.8,3.,4.8
1979-07-20 03:27:26.100 ,3,0,0.,4.8,2.,4.8,3.,4.8,2.,4.8
1979-07-20 03:27:30.900 ,3,0,0.,4.8,5.,4.8,1.,4.8,2.,4.8
1979-07-20 03:27:35.700 ,3,0,0.,4.8,3.,4.8,1.,4.8,2.,4.8
1979-07-20 03:27:40.500 ,3,0,0.,4.8,7.,4.8,2.,4.8,3.,4.8
1979-07-20 03:27:45.300 ,3,0,0.,4.8,0.,4.8,2.,4.8,0.,4.8
1979-07-20 03:27:50.100 ,3,0,0.,4.8,3.,4.8,1.,4.8,4.,4.8
1979-07-20 03:27:54.900 ,3,0,0.,4.8,3.,4.8,2.,4.8,2.,4.8
1979-07-20 03:27:59.700 ,4,0,0.,4.8,3.,4.8,1.,4.8,1.,4.8
1979-07-20 03:28:04.500 ,4,0,0.,4.8,3.,4.8,3.,4.8,4.,4.8
1979-07-20 03:28:09.300 ,4,0,0.,4.8,5.,4.8,1.,4.8,3.,4.8
1979-07-20 03:28:14.100 ,4,0,0.,4.8,4.,4.8,2.,4.8,3.,4.8
1979-07-20 03:28:18.900 ,4,0,0.,4.8,2.,4.8,5.,4.8,2.,4.8
1979-07-20 03:28:23.700 ,4,0,0.,4.8,6.,4.8,6.,4.8,3.,4.8
1979-07-20 03:28:28.500 ,4,0,0.,4.8,4.,4.8,1.,4.8,4.,4.8
1979-07-20 03:28:33.300 ,4,0,0.,4.8,5.,4.8,2.,4.8,2.,4.8
1979-07-20 03:28:38.100 ,4,0,0.,4.8,6.,4.8,3.,4.8,0.,4.8
1979-07-20 03:28:42.900 ,4,0,0.,4.8,0.,4.8,0.,4.8,1.,4.8
1979-07-20 03:28:47.700 ,5,0,0.,4.8,4.,4.8,3.,4.8,2.,4.8
1979-07-20 03:28:52.500 ,5,0,0.,4.8,2.,4.8,5.,4.8,1.,4.8
1979-07-20 03:28:57.300 ,5,0,0.,4.8,4.,4.8,0.,4.8,2.,4.8
1979-07-20 03:29:02.100 ,5,0,0.,4.8,3.,4.8,1.,4.8,4.,4.8
1979-07-20 03:29:06.900 ,5,0,0.,4.8,3.,4.8,0.,4.8,4.,4.8
1979-07-20 03:29:11.700 ,5,0,0.,4.8,4.,4.8,2.,4.8,3.,4.8
1979-07-20 03:29:16.500 ,5,0,0.,4.8,4.,4.8,1.,4.8,1.,4.8
1979-07-20 03:29:21.300 ,5,0,0.,4.8,4.,4.8,4.,4.8,2.,4.8
1979-07-20 03:29:26.100 ,5,0,0.,4.8,2.,4.8,3.,4.8,0.,4.8
1979-07-20 03:29:30.900 ,5,0,0.,4.8,6.,4.8,1.,4.8,0.,4.8
1979-07-20 03:29:35.700 ,6,0,0.,4.8,3.,4.8,2.,4.8,4.,4.8
1979-07-20 03:29:40.500 ,6,0,0.,4.8,3.,4.8,1.,4.8,1.,4.8
1979-07-20 03:29:45.300 ,6,0,0.,4.8,6.,4.8,1.,4.8,1.,4.8
1979-07-20 03:29:50.100 ,6,0,0.,4.8,4.,4.8,0.,4.8,1.,4.8
1979-07-20 03:29:54.900 ,6,0,0.,4.8,1.,4.8,0.,4.8,0.,4.8
1979-07-20 03:29:59.700 ,6,0,0.,4.8,9.,4.8,3.,4.8,1.,4.8
1979-07-20 03:30:04.500 ,6,0,0.,4.8,2.,4.8,4.,4.8,2.,4.8
1979-07-20 03:30:09.300 ,6,0,0.,4.8,7.,4.8,1.,4.8,2.,4.8
1979-07-20 03:30:14.100 ,6,0,0.,4.8,1.,4.8,1.,4.8,2.,4.8
1979-07-20 03:30:18.900 ,6,0,0.,4.8,5.,4.8,0.,4.8,1.,4.8
1979-07-20 03:30:23.700 ,7,0,0.,4.8,7.,4.8,0.,4.8,2.,4.8
1979-07-20 03:30:28.500 ,7,0,0.,4.8,1.,4.8,2.,4.8,3.,4.8
1979-07-20 03:30:33.300 ,7,0,0.,4.8,0.,4.8,0.,4.8,0.,4.8
1979-07-20 03:30:38.100 ,7,0,0.,4.8,0.,4.8,0.,4.8,0.,4.8
1979-07-20 03:30:42.900 ,7,0,0.,4.8,1.,4.8,0.,4.8,0.,4.8
1979-07-20 03:30:47.700 ,7,0,0.,4.8,0.,4.8,0.,4.8,0.,4.8
1979-07-20 03:30:52.500 ,7,0,0.,4.8,2.,4.8,0.,4.8,0.,4.8
1979-07-20 03:30:57.300 ,7,0,0.,4.8,1.,4.8,0.,4.8,0.,4.8
1979-07-20 03:31:02.100 ,7,0,0.,4.8,0.,4.8,0.,4.8,0.,4.8
1979-07-20 03:31:06.900 ,7,0,0.,4.8,1.,4.8,0.,4.8,0.,4.8
1979-07-20 03:31:11.700 ,3,1,0.,4.8,3.,4.8,1.,4.8,1.,4.8
1979-07-20 03:31:16.500 ,3,1,0.,4.8,5.,4.8,3.,4.8,0.,4.8
1979-07-20 03:31:21.300 ,3,1,0.,4.8,7.,4.8,1.,4.8,0.,4.8
1979-07-20 03:31:26.100 ,3,1,0.,4.8,3.,4.8,3.,4.8,2.,4.8
1979-07-20 03:31:30.900 ,3,1,0.,4.8,3.,4.8,4.,4.8,1.,4.8
1979-07-20 03:31:35.700 ,0,1,0.,4.8,4.,4.8,2.,4.8,3.,4.8
1979-07-20 03:31:40.500 ,0,1,0.,4.8,8.,4.8,5.,4.8,2.,4.8
1979-07-20 03:31:45.300 ,0,1,0.,4.8,0.,4.8,0.,4.8,2.,4.8
1979-07-20 03:31:50.100 ,0,1,0.,4.8,5.,4.8,3.,4.8,0.,4.8
1979-07-20 03:31:54.900 ,0,1,0.,4.8,3.,4.8,1.,4.8,1.,4.8
1979-07-20 03:31:59.700 ,4,1,0.,4.8,6.,4.8,3.,4.8,1.,4.8
1979-07-20 03:32:04.500 ,4,1,0.,4.8,4.,4.8,3.,4.8,4.,4.8
1979-07-20 03:32:09.300 ,4,1,0.,4.8,3.,4.8,2.,4.8,3.,4.8
1979-07-20 03:32:14.100 ,4,1,0.,4.8,4.,4.8,1.,4.8,4.,4.8
1979-07-20 03:32:18.900 ,4,1,0.,4.8,3.,4.8,4.,4.8,3.,4.8
1979-07-20 03:32:23.700 ,7,1,0.,4.8,1.,4.8,3.,4.8,2.,4.8
1979-07-20 03:32:28.500 ,7,1,0.,4.8,2.,4.8,2.,4.8,0.,4.8
1979-07-20 03:32:33.300 ,7,1,0.,4.8,4.,4.8,1.,4.8,0.,4.8
1979-07-20 03:32:38.100 ,7,1,0.,4.8,0.,4.8,0.,4.8,1.,4.8
1979-07-20 03:32:42.900 ,7,1,0.,4.8,2.,4.8,0.,4.8,0.,4.8
1979-07-20 03:32:47.700 ,3,1,0.,4.8,1.,4.8,0.,4.8,0.,4.8
1979-07-20 03:32:52.500 ,3,1,0.,4.8,3.,4.8,1.,4.8,1.,4.8
1979-07-20 03:32:57.300 ,3,1,0.,4.8,1.,4.8,2.,4.8,5.,4.8
1979-07-20 03:33:02.100 ,3,1,0.,4.8,5.,4.8,1.,4.8,2.,4.8
1979-07-20 03:33:06.900 ,3,1,0.,4.8,2.,4.8,2.,4.8,1.,4.8
1979-07-20 03:33:11.700 ,0,1,0.,4.8,2.,4.8,4.,4.8,2.,4.8
1979-07-20 03:33:16.500 ,0,1,0.,4.8,4.,4.8,4.,4.8,1.,4.8